SCP
0 0 0 0 0 0 0 0 0 0 0 0 0 0 0 0 0 0 0 0 0 0 0 0 0 0 0 0 0 0 0 0 0 0 0 0 0 0
0 0 0 0 0 0 0 0 0 0 0 0 0 0 0 0 0 0 0 0 0 0 0 0 0 0 0 0 0 0 0 0 0 0 0 0 0 0
0 0 0 0 0 0 0 0 0 0 0 0 0 0 0 0 0 0 0 0 0 0 0 0 0 0 0 0 0 0 0 0 0 0 0 0 0 0
0 0 0 0 0 0 0 0 0 0 0 0 0 0 0 0 0 0 0 0 0 0 0 0 0 0 0 0 0 0 0 0 0 0 0 0 0 0
0 0 0 0 0 0 0 0 0 0 0 0 0 0 0 0 0 0 0 0 0 0 0 0 0 0 0 0 0 0 0 0 0 0 0 0 0 0
0 0 0 0 0 0 0 0 0 0 0 0 0 0 0 0 0 0 0 0 0 0 0 0 0 0 0 0 0 0 0 0 0 0 0 0 0 0
0 0 0 0 0 0 0 0 0 0 0 0 0 0 0 0 0 0 0 0 0 0 0 0 0 0 0 0 0 0 0 0 0 0 0 0 0 0
0 0 0 0 0 0 0 0 0 0 0 0 0 0 0 0 0 0 0 0 0 0 0 0 0 0 0 0 0 0 0 0 0 0 0 0 0 0
0 0 0 0 0 0 0 0 0 0 0 0 0 0 0 0 0 0 0 0 0 0 0 0 0 0 0 0 0 0 0 0 0 0 0 0 0 0
0 0 0 0 0 0 0 0 0 0 0 0 0 0 0 0 0 0 0 0 0 0 0 0 0 0 0 0 0 0 0 0 0 0 0 0 0 0
0 0 0 0 0 0 0 0 0 0 0 0 0 0 0 0 0 0 0 0 0 0 0 0 0 0 0 0 0 0 0 0 0 0 0 0 0 0
0 0 0 0 0 0 0 0 0 0 0 0 0 0 0 0 0 0 0 0 0 0 0 0 0 0 0 0 0 0 0 0 0 0 0 0 0 0
0 0 0 0 0 0 0 0 0 0 0 0 0 0 0 0 0 0 0 0 0 0 0 0 0 0 0 0 0 0 0 0 0 0 0 0 0 0
0 0 0 0 0 0 0 0 0 0 0 0 0 0 0 0 0 0 0 0 0 0 0 0 0 0 0 0 0 0 0 0 0 0 0 0 0 0
0 0 0 0 0 0 0 0 0 0 0 0 0 0 0 0 0 0 0 0 0 0 0 0 0 0 0 0 0 0 0 0 0 0 0 0 0 0
0 0 0 0 0 0 0 0 0 0 0 0 0 0 0 0 0 0 0 0 0 0 0 0 0 0 0 0 0 0 0 0 0 0 0 0 0 0
0 0 0 0 0 0 0 0 0 0 0 0 0 0 0 0 0 0 0 0 0 0 0 0 0 0 0 0 0 0 0 0 0 0 0 0 0 0
0 0 0 0 0 0 0 0 0 0 0 0 0 0 0 0 0 0 0 0 0 0 0 0 0 0 0 0 0 0 0 0 0 0 0 0 0 0
0 0 0 0 0 0 0 0 0 0 0 0 0 0 0 0 0 0 0 0 0 0 0 0 0 0 0 0 0 0 0 0 0 0 0 0 0 0
0 0 0 0 0 0 0 0 0 0 0 0 0 0 0 0 0 0 0 0 0 0 0 0 0 0 0 0 0 0 0 0 0 0 0 0 0 0
0 0 0 0 0 0 0 0 0 0 0 0 0 0 0 0 0 0 0 0 0 0 0 0 0 0 0 0 0 0 0 0 0 0 0 0 0 0
0 0 0 0 0 0 0 0 0 0 0 0 0 0 0 0 0 0 0 0 0 0 0 0 0 0 0 0 0 0 0 0 0 0 0 0 0 0
0 0 0 0 0 0 0 0 0 0 0 0 0 0 0 0 0 0 0 0 0 0 0 0 0 0 0 0 0 0 0 0 0 0 0 0 0 0
Wind_Speed
2 2 1 1 2 2 3 3 5 9 10 6 4 4 6 7 10 9 9 14 18 19 20 21 22 23 24 25 25 25 25 24 23 23 22 21 20 19
2 3 2 2 3 3 3 3 4 6 9 5 6 8 9 10 14 12 11 18 20 20 20 20 21 22 23 24 25 26 26 25 25 25 24 23 21 20
4 4 5 4 3 4 4 4 4 5 10 10 7 8 10 12 12 11 11 11 11 18 20 20 21 21 21 22 22 22 23 24 25 25 25 24 23 21
5 5 6 5 6 5 4 5 6 6 8 13 11 9 11 12 13 13 12 11 10 16 20 21 21 21 20 19 19 18 17 18 20 22 23 23 23 22
5 6 7 7 7 6 7 7 7 8 8 10 12 10 9 9 11 11 12 10 11 13 17 18 20 20 19 18 17 15 15 15 17 18 19 20 20 19
6 6 7 7 8 9 7 8 8 9 9 10 10 9 9 9 8 8 9 8 9 10 13 14 17 20 20 19 18 17 15 14 15 16 15 15 15 15
8 7 8 11 11 9 8 9 9 8 8 8 9 8 9 8 7 6 9 9 10 9 9 9 9 9 10 14 17 18 16 14 13 14 14 14 13 12
8 9 9 9 11 14 15 16 15 12 10 8 8 9 10 9 8 7 8 8 6 4 5 7 7 9 9 8 13 16 16 14 12 12 13 13 12 12
8 8 8 8 11 9 12 16 15 17 16 11 10 10 11 9 9 9 8 8 8 6 6 8 7 9 8 9 14 15 15 14 12 12 12 12 12 12
8 8 9 10 9 10 11 11 11 11 12 9 9 10 10 9 8 8 8 8 7 7 6 7 6 7 7 6 10 12 12 12 12 11 11 12 12 12
9 9 9 9 12 14 11 11 11 10 10 12 13 12 13 13 10 6 5 5 6 5 3 3 3 4 5 4 4 7 9 9 10 10 10 10 11 11
9 9 10 10 14 14 10 9 10 10 11 11 10 10 9 8 8 6 5 5 5 4 2 3 3 3 4 3 2 2 3 5 7 8 9 9 11 8
7 7 8 13 15 15 11 8 10 12 10 9 8 7 6 5 5 5 4 4 5 4 3 3 3 3 3 4 3 2 2 2 3 4 7 9 10 9
7 7 8 14 15 14 10 11 14 11 6 6 6 6 5 5 5 6 6 5 5 6 6 5 3 3 3 3 3 2 2 3 3 4 4 7 9 10
7 12 14 14 12 9 11 13 10 6 6 6 6 5 5 6 6 5 5 5 4 4 4 4 4 4 3 3 3 3 2 2 3 4 4 5 5 6
8 10 12 11 9 9 9 8 6 6 6 5 6 6 5 5 5 5 4 5 4 4 5 5 4 4 5 4 4 3 3 2 2 3 4 5 5 6
8 5 5 6 7 7 7 7 6 6 6 6 6 6 6 6 5 5 4 4 5 5 6 6 5 3 1 6 5 4 3 1 1 2 4 4 4 5
6 5 6 6 7 7 8 7 6 7 6 6 6 6 6 6 6 5 5 5 6 6 7 7 7 6 3 2 11 7 5 4 3 4 4 5 4 4
5 5 6 7 7 7 7 7 7 7 6 5 5 6 6 6 6 6 6 6 6 7 7 7 7 7 8 8 10 16 8 6 7 7 7 6 5 5
5 6 6 7 7 7 7 7 7 7 6 6 5 5 5 5 6 6 6 8 7 7 8 8 8 8 7 6 6 10 19 10 8 9 9 9 9 11
6 6 6 6 7 7 7 7 7 7 7 6 6 6 5 5 6 6 6 9 8 7 8 8 9 11 6 5 7 10 14 21 19 9 7 8 8 9
6 6 6 6 7 7 7 7 7 7 8 7 6 6 5 5 6 7 7 7 7 7 8 7 9 9 9 10 11 12 12 13 19 28 26 17 7 6
6 6 6 6 7 7 7 8 9 7 7 7 6 6 5 5 5 6 7 7 7 8 8 8 8 9 10 10 11 11 15 15 13 15 17 23 26 24
Wind_Direction
42 24 328 298 285 260 249 247 278 297 297 277 266 271 279 282 280 282 276 281 287 287 285 283 280 277 275 272 270 267 266 264 263 260 256 253 249 248
25 12 344 314 309 300 286 270 256 275 290 283 279 281 284 287 288 287 282 284 285 284 282 280 278 275 273 270 267 264 262 260 257 255 253 249 246 245
7 350 331 319 309 306 299 288 276 271 286 295 283 281 278 280 285 285 282 279 276 276 278 279 278 276 274 272 270 268 263 258 255 253 250 246 243 241
348 336 326 323 310 300 292 286 282 273 278 294 298 292 281 280 281 280 282 278 275 277 278 279 278 276 276 274 270 269 267 262 256 252 250 246 242 240
331 322 315 312 305 300 296 288 284 284 277 285 293 291 285 282 283 280 279 277 278 278 278 276 276 275 276 276 272 267 265 260 252 247 245 243 241 239
323 313 307 299 291 293 294 290 290 289 285 282 287 290 287 284 277 283 287 281 280 283 279 275 272 273 273 273 270 268 263 258 249 240 235 233 231 230
324 317 308 304 306 308 308 305 301 295 293 289 289 292 294 296 290 286 288 291 285 274 273 274 274 270 270 269 268 266 264 257 247 237 230 224 220 218
319 317 312 307 312 315 314 313 310 306 305 297 296 297 299 298 295 291 289 291 289 270 267 280 277 273 268 259 257 257 257 251 244 234 225 218 214 213
311 311 311 311 315 310 313 314 309 304 301 300 298 297 297 298 295 292 285 285 283 280 281 284 279 276 272 266 261 254 249 244 239 231 223 217 212 211
313 307 305 310 315 320 317 311 307 305 302 299 290 292 293 293 291 289 289 287 279 277 272 281 284 280 280 268 259 251 245 237 232 227 221 216 211 208
319 317 316 316 315 320 320 312 309 309 309 303 295 291 290 290 292 294 299 303 305 302 286 274 288 293 287 279 267 253 243 234 227 220 215 210 203 199
322 322 321 318 317 320 318 309 309 314 314 312 309 307 304 300 299 293 298 301 305 297 296 294 286 300 297 286 282 265 242 230 220 213 207 201 190 187
321 322 319 319 319 318 317 306 304 307 306 306 309 311 314 315 312 307 296 292 296 288 297 297 282 277 273 290 291 268 236 221 203 202 199 190 182 179
317 315 313 317 319 320 320 315 315 316 311 315 321 327 330 330 326 319 310 300 286 287 300 306 284 289 290 282 287 295 262 225 204 193 184 180 183 180
316 316 320 322 326 327 324 325 327 327 328 334 339 338 334 331 329 326 326 321 307 303 318 318 323 316 298 288 292 286 287 253 197 189 180 177 175 172
326 321 322 326 332 329 330 335 337 335 340 343 344 339 338 341 346 342 338 341 339 335 333 336 331 345 349 323 304 301 285 273 205 189 177 170 168 173
323 325 338 342 345 345 342 342 344 351 356 355 355 354 351 353 353 349 351 350 358 358 357 350 336 304 356 0 337 332 329 309 234 168 153 147 154 164
345 347 345 345 344 343 342 343 347 354 355 355 1 4 2 2 3 1 4 9 13 12 9 2 357 356 347 44 18 360 4 13 41 85 109 114 117 130
1 351 347 344 344 343 344 347 348 347 350 353 358 2 7 10 11 12 13 16 18 18 16 10 8 10 23 23 15 17 22 32 49 62 67 74 82 93
355 349 346 345 345 345 346 347 345 346 351 352 353 358 5 15 19 22 24 23 22 20 20 18 15 12 16 12 10 24 32 39 50 60 66 71 74 77
347 346 344 344 343 344 344 345 345 346 350 351 355 359 6 18 27 30 33 27 28 27 27 23 10 5 14 32 48 45 44 46 54 53 55 70 70 69
344 342 342 343 343 342 342 344 346 348 351 354 355 358 6 23 35 37 37 38 36 35 34 30 23 28 39 51 53 48 49 51 54 56 53 56 67 68
345 342 341 343 343 341 341 343 344 345 348 349 353 359 8 28 41 44 46 49 48 46 42 41 40 44 46 49 53 53 52 53 55 58 59 62 73 79